Zurück zum Katalog

STARLINK-3235

AktivKommunikationVLEO
NORAD 50200·PAYLOAD·🇺🇸 United States

Gestartet Dec 18, 2021 von Vandenberg Space Force Base

Loading…

Nächste Überflüge (nächste 24 Stunden)

TLE

AktuellSource: CelesTrak SupGP

Epoche: Sep 14, 2026, 20:37 UTC

1 50200C 21125AW  26257.85951389 -.00004795  00000+0 -14552-3 0  2571
2 50200  53.1589 100.3759 0000996  98.8922 118.9134 15.33547737    10

Verfolge STARLINK-3235 in Echtzeit mit AllMySat

Download on the App Store